Location: ???? ????
(31.2831°N, 45.5190°E)
Time: 11:33:58
(UTC+00:00)

X-37B - Pass Details

Date: 03 October 2021
Orbit: 385 x 389 km, 45.0° (Epoch: 13 October)

Event Time Altitude Azimuth Distance (km) Brightness Sun altitude
Exits shadow 02:25:06 - 310° (NW) 1,930 3.6 -6.8°
Reaches altitude 10° 02:26:23 10° 313° (NW) 1,409 3.0 -6.5°
Maximum altitude 02:29:31 57° 34° (NNE) 459 1.2 -5.8°
Drops below altitude 10° 02:32:38 10° 114° (ESE) 1,406 4.7 -5.1°
Sets 02:34:43 0° 118° (ESE) 2,258 5.8 -4.7°
